Weather reports worldwide

Advertisment
Sibenik, Croatia (14438): temperature & dewpoint: 01.07.2020 21:00:00 - 07.07.2020 21:00:00 (CEST)Sibenik, Croatia (14438): water temperature: 01.07.2020 21:00:00 - 07.07.2020 21:00:00 (CEST)Sibenik, Croatia (14438): wind speed & gusts: 01.07.2020 21:00:00 - 07.07.2020 21:00:00 (CEST)Sibenik, Croatia (14438): wind direction: 01.07.2020 21:00:00 - 07.07.2020 21:00:00 (CEST)Sibenik, Croatia (14438): reduced air pressure: 01.07.2020 21:00:00 - 07.07.2020 21:00:00 (CEST)Sibenik, Croatia (14438): visibility: 01.07.2020 21:00:00 - 07.07.2020 21:00:00 (CEST)
Date & Time tt [°C] td [°C] tw [°C] ff [km/h] ff [kn] fx [km/h] fx [kn] dd ppp [hPa] vv [km]
07.07.2020 21:00:00 - - - - - - - - - -
07.07.2020 20:00:00 25,8 9,1 - 25 14 - - NNW 1013,6 40
07.07.2020 19:00:00 25,3 6,5 - 22 12 - - N 1013,6 -
07.07.2020 18:00:00 26,2 6,8 - 22 12 - - N 1013,1 -
07.07.2020 17:00:00 27,3 6,7 - 22 12 - - N 1013,0 -
07.07.2020 16:00:00 27,7 7,6 - 25 14 - - N 1013,1 -
07.07.2020 15:00:00 28,0 9,1 20,0 25 14 - - NNW 1013,1 45
07.07.2020 14:00:00 27,8 10,4 - 18 10 - - NNW 1013,0 45
07.07.2020 13:00:00 25,2 10,5 - 18 10 - - N 1013,2 45
07.07.2020 12:00:00 20,2 11,0 - 29 16 - - N 1013,5 40
07.07.2020 11:00:00 19,0 10,0 - 29 16 - - NNW 1012,8 40
07.07.2020 10:00:00 20,7 8,5 - 32 18 72 39 N 1012,1 40
07.07.2020 09:00:00 20,6 7,9 - 43 23 86 47 N 1011,2 40
07.07.2020 08:00:00 20,2 8,3 19,0 47 25 - - N 1010,3 40
07.07.2020 07:00:00 20,3 8,2 - 47 25 101 54 N 1009,5 40
07.07.2020 06:00:00 20,3 9,3 - 50 27 101 54 N 1008,9 35
07.07.2020 05:00:00 20,8 10,2 - 54 29 - - N 1008,3 30
07.07.2020 04:00:00 - - - - - - - - - -
07.07.2020 03:00:00 - - - - - - - - - -
07.07.2020 02:00:00 26,2 13,1 - 14 8 - - N 1006,2 -
07.07.2020 01:00:00 - - - - - - - - - -
07.07.2020 00:00:00 - - - - - - - - - -
06.07.2020 23:00:00 25,0 16,2 - 4 2 - - ENE 1006,2 -
06.07.2020 22:00:00 25,4 16,9 - 7 4 - - E 1005,1 20
06.07.2020 21:00:00 26,4 16,9 - 7 4 - - SSE 1005,0 40
06.07.2020 20:00:00 27,7 16,3 - 11 6 - - S 1004,9 40
06.07.2020 19:00:00 29,7 13,9 - 11 6 - - SW 1005,5 -
06.07.2020 18:00:00 30,1 15,1 - 14 8 - - SW 1005,7 -
06.07.2020 17:00:00 30,7 13,6 - 14 8 - - WSW 1005,9 -
06.07.2020 16:00:00 31,4 12,3 - 18 10 - - WSW 1006,5 -
06.07.2020 15:00:00 30,5 15,2 24,0 14 8 - - WSW 1006,7 40
06.07.2020 14:00:00 30,7 14,5 - 18 10 - - SSW 1007,1 40
06.07.2020 13:00:00 31,1 13,9 - 14 8 - - SW 1007,5 40
06.07.2020 12:00:00 32,4 13,2 - 18 10 - - S 1007,7 40
06.07.2020 11:00:00 31,6 13,1 - 11 6 - - SSW 1008,1 40
06.07.2020 10:00:00 30,2 13,0 - 7 4 - - W 1008,6 40
06.07.2020 09:00:00 28,0 13,1 - 4 2 - - WSW 1008,9 40
06.07.2020 08:00:00 25,8 13,0 22,0 4 2 - - SSW 1009,0 40
06.07.2020 07:00:00 25,0 12,9 - 0 0 - - N 1009,2 40
06.07.2020 06:00:00 23,6 12,5 - 7 4 - - N 1009,2 40
06.07.2020 05:00:00 23,6 12,7 - 11 6 - - N 1009,4 30
06.07.2020 04:00:00 - - - - - - - - - -
06.07.2020 03:00:00 - - - - - - - - - -
06.07.2020 02:00:00 24,3 12,7 - 14 8 - - N 1011,0 -
06.07.2020 01:00:00 - - - - - - - - - -
06.07.2020 00:00:00 - - - - - - - - - -
05.07.2020 23:00:00 26,6 12,7 - 18 10 - - N 1011,3 -
05.07.2020 22:00:00 27,6 13,9 - 11 6 - - NNW 1010,8 40
05.07.2020 21:00:00 28,7 14,0 - 22 12 - - NNW 1010,2 45
05.07.2020 20:00:00 30,3 14,0 - 25 14 - - NNW 1010,0 45
05.07.2020 19:00:00 32,2 11,4 - 22 12 - - N 1010,2 -
05.07.2020 18:00:00 33,4 11,3 - 22 12 - - N 1010,2 -
05.07.2020 17:00:00 34,0 11,3 - 22 12 - - N 1010,5 -
05.07.2020 16:00:00 33,9 11,2 - 22 12 - - NNW 1010,9 -
05.07.2020 15:00:00 34,6 12,5 21,0 18 10 - - NNW 1010,6 40
05.07.2020 14:00:00 34,1 12,0 - 22 12 - - NNW 1011,2 40
05.07.2020 13:00:00 33,3 12,3 - 14 8 - - NNW 1011,9 40
05.07.2020 12:00:00 30,7 12,6 - 14 8 - - NNE 1012,5 40
05.07.2020 11:00:00 31,4 11,9 - 11 6 - - E 1012,6 40
05.07.2020 10:00:00 30,3 12,3 - 14 8 - - N 1012,9 40
05.07.2020 09:00:00 28,6 13,0 - 18 10 - - N 1013,0 45
05.07.2020 08:00:00 26,4 12,9 24,0 18 10 - - N 1013,0 45
05.07.2020 07:00:00 24,4 12,3 - 22 12 - - N 1012,7 40
05.07.2020 06:00:00 22,6 12,4 - 11 6 - - NNE 1012,8 40
05.07.2020 05:00:00 22,9 12,4 - 14 8 - - NNE 1012,5 35
05.07.2020 04:00:00 - - - - - - - - - -
05.07.2020 03:00:00 - - - - - - - - - -
05.07.2020 02:00:00 23,6 11,7 - 22 12 - - N 1013,6 -
05.07.2020 01:00:00 - - - - - - - - - -
05.07.2020 00:00:00 - - - - - - - - - -
04.07.2020 23:00:00 25,2 12,1 - 25 14 - - N 1013,2 -
04.07.2020 22:00:00 26,2 13,5 - 18 10 - - N 1012,3 30
04.07.2020 21:00:00 27,4 13,5 - 18 10 - - NNW 1011,8 40
04.07.2020 20:00:00 28,7 14,0 - 18 10 - - N 1011,8 40
04.07.2020 19:00:00 29,9 12,0 - 22 12 - - NNW 1011,7 -
04.07.2020 18:00:00 31,3 12,2 - 25 14 - - NNW 1011,6 -
04.07.2020 17:00:00 32,8 12,0 - 11 6 - - WNW 1011,6 -
04.07.2020 16:00:00 32,6 12,3 - 14 8 - - NNW 1011,8 -
04.07.2020 15:00:00 32,4 13,8 25,0 18 10 - - NNW 1011,8 45
04.07.2020 14:00:00 32,6 13,9 - 14 8 - - NNW 1012,0 45
04.07.2020 13:00:00 31,2 13,1 - 22 12 - - N 1012,9 45
04.07.2020 12:00:00 30,6 13,7 - 14 8 - - N 1012,9 45
04.07.2020 11:00:00 29,2 13,7 - 22 12 - - N 1012,7 45
04.07.2020 10:00:00 27,1 13,5 - 18 10 - - N 1013,0 45
04.07.2020 09:00:00 26,7 13,3 - 22 12 - - N 1012,8 45
04.07.2020 08:00:00 24,7 13,3 24,0 22 12 - - N 1012,6 45
04.07.2020 07:00:00 24,0 13,0 - 18 10 - - N 1012,5 45
04.07.2020 06:00:00 23,5 13,5 - 14 8 - - N 1012,0 40
04.07.2020 05:00:00 23,7 14,2 - 18 10 - - N 1011,6 30
04.07.2020 04:00:00 - - - - - - - - - -
04.07.2020 03:00:00 - - - - - - - - - -
04.07.2020 02:00:00 23,3 13,3 - 22 12 - - N 1012,3 -
04.07.2020 01:00:00 - - - - - - - - - -
04.07.2020 00:00:00 - - - - - - - - - -
03.07.2020 23:00:00 23,5 13,7 - 25 14 - - N 1012,7 -
03.07.2020 22:00:00 24,2 15,3 - 32 18 - - N 1011,9 30
03.07.2020 21:00:00 24,8 15,1 - 32 18 - - N 1011,3 30
03.07.2020 20:00:00 26,5 15,0 - 32 18 - - N 1010,2 35
03.07.2020 19:00:00 28,1 14,1 - 29 16 - - N 1010,0 -
03.07.2020 18:00:00 29,9 14,1 - 25 14 - - NNW 1009,7 -
03.07.2020 17:00:00 31,3 14,5 - 29 16 - - N 1009,7 -
03.07.2020 16:00:00 33,7 14,8 - 7 4 - - N 1009,3 -
03.07.2020 15:00:00 31,2 18,0 25,0 14 8 - - WSW 1008,8 35
03.07.2020 14:00:00 32,2 18,2 - 18 10 - - WSW 1009,0 35
03.07.2020 13:00:00 32,2 17,6 - 14 8 - - WSW 1009,5 35
03.07.2020 12:00:00 32,1 17,3 - 11 6 - - WSW 1009,5 35
03.07.2020 11:00:00 32,0 16,6 - 7 4 - - SSW 1009,3 35
03.07.2020 10:00:00 30,7 17,3 - 7 4 - - SSW 1009,3 35
03.07.2020 09:00:00 29,2 16,7 - 4 2 - - SSW 1009,3 35
03.07.2020 08:00:00 27,0 17,6 25,0 0 0 - - N 1009,0 35
03.07.2020 07:00:00 26,8 17,2 - 7 4 - - ENE 1008,7 35
03.07.2020 06:00:00 24,4 18,4 - 4 2 - - SW 1009,2 35
03.07.2020 05:00:00 24,1 18,3 - 0 0 - - N 1009,2 30
03.07.2020 04:00:00 - - - - - - - - - -
03.07.2020 03:00:00 - - - - - - - - - -
03.07.2020 02:00:00 25,5 18,3 - 0 0 - - N 1009,6 -
03.07.2020 01:00:00 - - - - - - - - - -
03.07.2020 00:00:00 - - - - - - - - - -
02.07.2020 23:00:00 - - - - - - - - - -
02.07.2020 22:00:00 27,3 21,3 - 0 0 - - N 1009,5 35
02.07.2020 21:00:00 28,5 19,0 - 7 4 - - SW 1009,2 35
02.07.2020 20:00:00 30,1 16,8 - 11 6 - - WSW 1008,6 40
02.07.2020 19:00:00 32,0 16,0 - 7 4 - - WSW 1009,0 -
02.07.2020 18:00:00 33,5 16,5 - 11 6 - - WSW 1008,9 -
02.07.2020 17:00:00 32,6 19,6 - 7 4 - - S 1009,5 -
02.07.2020 16:00:00 33,0 18,5 - 11 6 - - SSW 1010,0 -
02.07.2020 15:00:00 32,5 18,5 25,0 11 6 - - SSW 1009,7 40
02.07.2020 14:00:00 32,2 16,7 - 11 6 - - SSW 1010,0 40
02.07.2020 13:00:00 31,6 17,8 - 14 8 - - S 1010,1 40
02.07.2020 12:00:00 31,2 15,2 - 14 8 - - S 1010,1 40
02.07.2020 11:00:00 30,7 15,9 - 7 4 - - S 1010,0 40
02.07.2020 10:00:00 29,9 15,4 - 11 6 - - S 1009,9 40
02.07.2020 09:00:00 29,4 13,7 - 4 2 - - S 1009,7 40
02.07.2020 08:00:00 26,9 15,5 25,0 4 2 - - E 1009,6 45
02.07.2020 07:00:00 24,3 16,0 - 4 2 - - SSE 1009,4 45
02.07.2020 06:00:00 23,4 15,4 - 0 0 - - N 1009,4 45
02.07.2020 05:00:00 23,4 15,4 - 0 0 - - N 1009,4 35
02.07.2020 04:00:00 - - - - - - - - - -
02.07.2020 03:00:00 - - - - - - - - - -
02.07.2020 02:00:00 25,4 15,2 - - - - - - 1010,6 -
02.07.2020 01:00:00 - - - - - - - - - -
02.07.2020 00:00:00 - - - - - - - - - -
01.07.2020 23:00:00 27,4 12,7 - 0 0 - - N 1010,9 -
01.07.2020 22:00:00 27,5 15,0 - 4 2 - - N 1010,2 30
01.07.2020 21:00:00 29,2 15,4 - 4 2 - - WSW 1009,9 40

tt = temperature
td = dewpoint
tw = water temperature
ff = wind speed
fx = gusts
dd = wind direction
ppp = reduced air pressure
vv = visibility

Next stations